Regional Weather Roundup
Issued by NWS New Orleans/Baton Rouge, LA

Home | Current Version | Previous Version | Graphics & Text | Print | Product List | Glossary Off
Versions: 1 2 3 4 5 6 7 8 9 10 11 12 13 14 15 16 17 18 19 20 21 22 23 24 25 26 27 28 29 30 31 32 33 34 35 36 37 38 39 40 41 42 43 44 45 46 47 48 49 50

434
ASUS44 KLIX 180810
RWRLIX
NEW ORLEANS REGIONAL WEATHER ROUNDUP
NATIONAL WEATHER SERVICE NEW ORLEANS LA
300 AM CDT FRI APR 18 2014

NOTE: "FAIR" INDICATES FEW OR NO CLOUDS BELOW 12,000 FEET WITH NO
      SIGNIFICANT WEATHER AND/OR OBSTRUCTIONS TO VISIBILITY.
      SKY/WX - SKY CONDITION AND SIGNIFICANT WEATHER.
      TMP - AIR TEMPERATURE.     DP    - DEWPOINT TEMPERATURE.
      RH  - RELATIVE HUMIDITY.   PRES  - PRESSURE.
      HI  - HEAT INDEX.          WCI   - WIND CHILL INDEX.

*  THESE STATIONS ARE NOT NWS OR FAA STATIONS AND ARE NOT UNDER
   NWS QUALITY CONTROL.

LAZ038-040-048-061>063-065>067-069-180900-
SOUTHEAST LOUISIANA

CITY           SKY/WX    TMP DP  RH WIND       PRES   REMARKS
N.O. AUDUBON     N/A     66 N/A N/A MISG        N/A
N.O. INTL ARPT CLOUDY    63  59  87 E10       30.05F
N.O. LAKEFRONT CLOUDY    62  60  93 E16       30.06F
N.O. DOWNTOWN* CLOUDY    63  55  77 NE7       30.05F
SLIDELL        CLOUDY    62  58  86 VRB6      30.06F
BATON ROUGE    CLOUDY    62  55  77 N5        30.11F
BOOTHVILLE     CLOUDY    63  60  90 NE10      30.02F
BELLE CHASSE   CLOUDY    63  59  87 E13       30.04F
BOGALUSA*        N/A     63  57  82 N3        30.11R
GALLIANO*      CLOUDY    64  61  90 N8        30.04F
NEW ROADS*     CLOUDY    60  56  88 N6        30.12F
GONZALES*      CLOUDY    62  60  93 N5        30.08F
HAMMOND*       CLOUDY    61  57  88 NW5       30.10S
HOUMA*           N/A     63  58  85 NE6       30.06F
PORT FOURCHON* PTSUNNY   64  61  88 NE12G18   30.04F FOG

$$

MSZ070-080>082-180900-
SOUTHERN MISSISSIPPI

CITY           SKY/WX    TMP DP  RH WIND       PRES   REMARKS
MCCOMB         MOCLDY    58  53  84 N3        30.12F
GULFPORT       LGT RAIN  63  59  87 NE9G17    30.05F
BILOXI         CLOUDY    61  61 100 NE14      30.05F
PASCAGOULA     LGT RAIN  60  59  96 NE10      30.06F

$$

COASTAL OBSERVATIONS
LAKE AND NEARSHORE STATIONS

STATION/POSITION TIME  TEMP    WIND        PRES    WAVE
                       AIR SEA DIR/SP/G            HT/PER
                 (UTC) (F)     (DEG/KT/KT) (MB)    (FT/S)
PASCAGOULA       0800   61      50/ 12/ 17 1016.6
WAVELAND YACHT   0800   61 66   50/ 12/ 15 1017.1
GRAND ISLE       0800   64 66   60/ 13/ 17 1016.8
SOUTHWEST PASS   0800   65 58   40/ 14/ 17 1016.0
NEW CANAL        0800   63 63   70/ 15/ 17 1017.8
SHELL BEACH      0800   62 61   60/ 21/ 24 1016.7

OFFSHORE STATIONS

STATION/POSITION TIME  TEMP    WIND        PRES    WAVE
                       AIR SEA DIR/SP/G            HT/PER
                 (UTC) (F)     (DEG/KT/KT) (MB)    (FT/S)
64 S DAUPHIN ISL 0659   66 71   50/ 25/ 31 1015.1

$$




USA.gov is the U.S. government's official web portal to all federal, state and local government web resources and services.